Powrót do katalogu

STARLINK-5758

AktywnyŁącznośćVLEO
NORAD 56037·PAYLOAD·🇺🇸 United States

Wystrzelony Mar 24, 2023 z Cape Canaveral Space Force Station

Loading…

Następne Przeloty (najbliższe 24 godziny)

TLE

ŚwieżeSource: CelesTrak SupGP

Epoka: Sep 14, 2026, 21:23 UTC

1 56037C 23042BD  26257.89145833  .00055805  00000+0  20209-2 0  2579
2 56037  43.0049  42.2395 0001986 276.4465 243.9650 15.27555546    11

Śledź STARLINK-5758 w czasie rzeczywistym z AllMySat

Download on the App Store